{"data":{"norad_id":57870,"intl_designator":"2023-144G","name":"STARLINK-30460","alt_names":[],"object_type":"PAYLOAD","status":"ACTIVE","operator":null,"country":"US","launch_date":"2023-09-16","launch_site_code":"AFETR","launch_vehicle":null,"mission":null,"orbit_class":"UNKNOWN","rcs_meters":null,"size_class":null,"mass_kg":null,"dimensions":null,"purposes":["comms"],"wikipedia_slug":null,"has_3d_model":false,"image_url":null,"decayed_at":null,"tle_current":{"epoch":"2026-05-24T21:47:49.501248Z","epoch_age_seconds":83771,"freshness":"FRESH","line1":"1 57870U 23144G   26144.90821182  .00000228  00000+0  17831-4 0  9994","line2":"2 57870  43.0029 214.7983 0001397 277.1065  82.9628 15.27576823149307","mean_motion":15.27576823,"eccentricity":0.0001397,"inclination_deg":43.0029,"raan_deg":214.7983,"arg_perigee_deg":277.1065,"mean_anomaly_deg":82.9628,"bstar":1.7831e-5,"rev_number":14930,"period_min":94.266944766286,"perigee_km":482.10010011046,"apogee_km":484.01711816366,"semimajor_km":6861.1956091371,"source":"CELESTRAK","updated_at":"2026-05-25T13:38:18.447089Z"}}}